Showing default

TRANSIT 5B-1, 670

Orbit data source: Space-Track

TRANSIT 5B-1, 670 is a payload satellite owned by USN BuWeps (US) in LEO that was launched on Sat, 28 Sep 1963 UTC via a THOR ABLESTAR launch vehicle from the Air Force Western Test Range (AFWTR). Payload-class satellites include a variety of spacecraft equipped with specific instruments for various scientific and technological missions. These include communications satellites like Starlink; space stations such as the ISS; scientific satellites like the Hubble; Earth observation satellites from companies like Planet Labs, Umbra, and HawkEye 360; GPS; miniature CubeSats for education and research; and military/defense satellites.

Loading next visibility...
Identifier
670, 1963-038B
Orbit
LEO
Country
Flag of USUS
Related business
Manufacturer
APL
Mission
Defense Navigation
Bus & Motor
TRANSIT 5, Unknown motor
Mass
69 kg wet, 69 kg dry
Launch date (UTC)
1963-09-28 (62 years ago)
Launch vehicle
THOR ABLESTAR
Launch site
Air Force Western Test Range (AFWTR)
Object type
Payload
Rocket body
Debris
Shape & HBR
Oct Cyl + 1 Rod, 15.5 m
Radar Cross Section
0.334 m², Medium (>0.1 m² and < 1m²)

Expand to show TLE details & history
Last TLE update: 1 day ago

TLE from 1 day ago
0 TRANSIT 5B-1
1 00670U 63038B   25260.80155164  .00000048  00000-0  64444-4 0  9996
2 00670  89.9785 333.7573 0043560  94.4647 266.1479 13.44633601 37583
Epoch: 2025-09-17T19:14Z
TLE epoch observation values (Epoch: 2025-09-17T19:14:14.061Z)
Latitude
-0.00003°
Longitude
48.22643°
Altitude
1,097.342 km
Speed
7.302 km/s
True Right ascension
22h 15m 01s
True Declination
0° 00' 00"
Sunlit
Object was in full shadow at epoch
Visualization orbit readout
Latitude
Unknown
Longitude
Unknown
Altitude
Unknown
Speed
Unknown
Apparent Right ascension
Unknown
Apparent Declination
Unknown
Sunlit
N/A
Visualization observer readout
Local Sidereal Time
11:44:56
Azimuth
Unknown
Elevation
Unknown
Doppler factor
Unknown
Orbital elements
Apogee altitude
1,121.653 km
Perigee altitude
1,056.598 km
Semi-major axis
7,467.263 km
Eccentricity
0.00436
Inclination
89.9785°
RAAN
333.7573°
Arg. of periapsis
94.4647°
True anomaly
265.65006°
Mean anomaly
266.1479°
Eccentric anomaly
265.89896°
Mean motion
3.36357 °/min
Orbital period
107.03 mins
BSTAR
0.000064444
Loading maneuver chart data...
Computing Atmospheric mass density...

Documentation

Showing up to 5 results
|